This is the latest recevied weather packets stored in our database for station/object WX4LTG. If no packets are shown the sender has not sent any weather packets the latest 10 day(s).
| Time | Temp. | Humidity | Pressure | Rain* | Wind** | Luminosity | Snow |
|---|---|---|---|---|---|---|---|
| 1777699590 | 23.89° C | 30% | 1010 hPa | 0 mm | - | 0 W/m² | - |
| 1777699287 | 23.89° C | 30% | 1009.8 hPa | 0 mm | - | 0 W/m² | - |
| 1777698985 | 23.89° C | 32% | 1010.2 hPa | 0 mm | - | 0 W/m² | - |
| 1777698683 | 23.89° C | 34% | 1009.8 hPa | 0 mm | - | 0 W/m² | - |
| 1777698379 | 23.89° C | 36% | 1009.9 hPa | 0 mm | - | 0 W/m² | - |
| 1777698076 | 24.44° C | 33% | 1009.6 hPa | 0 mm | - | 0 W/m² | - |
| 1777697772 | 24.44° C | 28% | 1009.6 hPa | 0 mm | - | 0 W/m² | - |
| 1777697469 | 24.44° C | 29% | 1009.8 hPa | 0 mm | - | 0 W/m² | - |
| 1777697166 | 25° C | 27% | 1009.8 hPa | 0 mm | - | 0 W/m² | - |
| 1777696863 | 25.56° C | 26% | 1009.5 hPa | 0 mm | - | 0 W/m² | - |
| 1777696561 | 25.56° C | 25% | 1009.8 hPa | 0 mm | - | 0 W/m² | - |
| 1777696256 | 25.56° C | 26% | 1009.6 hPa | 0 mm | - | 0 W/m² | - |
| 1777695951 | 25.56° C | 26% | 1009.8 hPa | 0 mm | - | 0 W/m² | - |
| 1777695649 | 25° C | 27% | 1009.6 hPa | 0 mm | - | 0 W/m² | - |
| 1777695347 | 25.56° C | 26% | 1009.6 hPa | 0 mm | - | 0 W/m² | - |
| 1777695043 | 26.11° C | 25% | 1009.5 hPa | 0 mm | - | 0 W/m² | - |
| 1777694740 | 25.56° C | 26% | 1009.6 hPa | 0 mm | - | 0 W/m² | - |
| 1777694437 | 25.56° C | 26% | 1009.5 hPa | 0 mm | - | 0 W/m² | - |
| 1777694133 | 25.56° C | 27% | 1009.2 hPa | 0 mm | - | 0 W/m² | - |
| 1777693831 | 25.56° C | 26% | 1009.3 hPa | 0 mm | - | 0 W/m² | - |
| 1777693528 | 26.11° C | 25% | 1009.3 hPa | 0 mm | - | 0 W/m² | - |
| 1777693227 | 26.67° C | 24% | 1009.3 hPa | 0 mm | - | 0 W/m² | - |
| 1777692925 | 26.67° C | 23% | 1009.1 hPa | 0 mm | - | 0 W/m² | - |
| 1777692622 | 26.67° C | 24% | 1009.1 hPa | 0 mm | - | 0 W/m² | - |
| 1777692317 | 27.22° C | 23% | 1009.1 hPa | 0 mm | - | 0 W/m² | - |
* Rain latest hour (hover to see other rain measurements)
** Current wind speed in m/s (hover to see current wind gust speed)